TimeCST,TemperatureF,Dew PointF,Humidity,Sea Level PressureIn,VisibilityMPH,Wind Direction,Wind SpeedMPH,Gust SpeedMPH,PrecipitationIn,Events,Conditions,WindDirDegrees,DateUTC
12:53 AM,68.0,63.0,84,30.09,10.0,South,6.9,-,N/A,,Overcast,170,2012-12-04 06:53:00
1:53 AM,66.9,63.0,87,30.09,10.0,South,5.8,-,N/A,,Overcast,170,2012-12-04 07:53:00
2:39 AM,66.2,62.6,88,30.09,10.0,South,5.8,-,N/A,,Overcast,180,2012-12-04 08:39:00
2:53 AM,66.9,63.0,87,30.09,10.0,South,4.6,-,N/A,,Mostly Cloudy,170,2012-12-04 08:53:00
3:13 AM,66.2,62.6,88,30.09,10.0,South,5.8,-,N/A,,Mostly Cloudy,170,2012-12-04 09:13:00
3:53 AM,64.9,63.0,93,30.08,10.0,South,4.6,-,N/A,,Partly Cloudy,170,2012-12-04 09:53:00
4:53 AM,64.4,62.6,94,30.09,10.0,South,4.6,-,N/A,,Partly Cloudy,170,2012-12-04 10:53:00
5:07 AM,64.4,62.6,94,30.09,10.0,South,5.8,-,N/A,,Mostly Cloudy,180,2012-12-04 11:07:00
5:53 AM,64.9,64.0,97,30.07,10.0,SSE,5.8,-,N/A,,Overcast,160,2012-12-04 11:53:00
6:11 AM,66.2,64.4,94,30.09,10.0,South,3.5,-,N/A,,Overcast,170,2012-12-04 12:11:00
6:53 AM,66.0,64.0,93,30.10,10.0,South,8.1,-,N/A,,Overcast,180,2012-12-04 12:53:00
7:53 AM,66.9,64.0,90,30.12,9.0,South,8.1,-,N/A,,Overcast,190,2012-12-04 13:53:00
8:53 AM,68.0,64.9,90,30.13,9.0,South,5.8,16.1,N/A,,Overcast,190,2012-12-04 14:53:00
9:20 AM,69.8,64.4,83,30.13,10.0,South,10.4,-,N/A,,Overcast,190,2012-12-04 15:20:00
9:53 AM,71.1,64.9,81,30.13,10.0,SSW,8.1,-,N/A,,Mostly Cloudy,200,2012-12-04 15:53:00
10:26 AM,71.6,64.4,78,30.14,10.0,SW,10.4,-,N/A,,Overcast,220,2012-12-04 16:26:00
10:46 AM,73.4,64.4,73,30.13,10.0,South,11.5,17.3,N/A,,Mostly Cloudy,180,2012-12-04 16:46:00
10:53 AM,72.0,64.9,78,30.13,10.0,SSW,10.4,17.3,N/A,,Mostly Cloudy,210,2012-12-04 16:53:00
11:17 AM,73.4,64.4,73,30.13,10.0,South,12.7,-,N/A,,Mostly Cloudy,190,2012-12-04 17:17:00
11:29 AM,73.4,64.4,73,30.12,10.0,South,10.4,20.7,N/A,,Mostly Cloudy,190,2012-12-04 17:29:00
11:38 AM,73.4,64.4,73,30.12,10.0,South,9.2,20.7,N/A,,Mostly Cloudy,190,2012-12-04 17:38:00
11:53 AM,72.0,64.9,78,30.11,9.0,SSW,10.4,19.6,0.00,Rain,Light Rain,210,2012-12-04 17:53:00
12:27 PM,71.6,64.4,78,30.09,10.0,SSW,5.8,-,0.00,Rain-Thunderstorm,Light Rain,210,2012-12-04 18:27:00
12:53 PM,73.0,64.9,76,30.07,10.0,SSW,15.0,20.7,0.00,,Mostly Cloudy,200,2012-12-04 18:53:00
1:00 PM,73.4,64.4,73,30.07,10.0,SW,12.7,20.7,N/A,,Overcast,220,2012-12-04 19:00:00
1:08 PM,73.4,64.4,73,30.07,10.0,SSW,11.5,-,N/A,Thunderstorm,Mostly Cloudy,210,2012-12-04 19:08:00
1:18 PM,73.4,64.4,73,30.08,10.0,South,11.5,-,N/A,Thunderstorm,Overcast,190,2012-12-04 19:18:00
1:27 PM,73.4,64.4,73,30.07,10.0,South,11.5,-,N/A,,Overcast,180,2012-12-04 19:27:00
1:53 PM,73.9,66.0,76,30.07,10.0,South,10.4,-,N/A,,Overcast,190,2012-12-04 19:53:00
2:46 PM,73.4,64.4,73,30.07,10.0,SSE,12.7,-,N/A,,Mostly Cloudy,150,2012-12-04 20:46:00
2:53 PM,73.0,64.9,76,30.06,10.0,South,9.2,-,N/A,,Mostly Cloudy,180,2012-12-04 20:53:00
3:53 PM,71.1,66.0,84,30.06,10.0,SSE,8.1,-,N/A,,Partly Cloudy,150,2012-12-04 21:53:00
4:23 PM,69.8,66.2,88,30.07,10.0,South,5.8,-,N/A,Thunderstorm,Partly Cloudy,180,2012-12-04 22:23:00
4:34 PM,69.8,66.2,88,30.08,10.0,South,4.6,-,N/A,Thunderstorm,Clear,180,2012-12-04 22:34:00
4:53 PM,69.1,64.9,87,30.10,10.0,North,12.7,16.1,N/A,Thunderstorm,Mostly Cloudy,10,2012-12-04 22:53:00
5:04 PM,66.2,60.8,83,30.10,10.0,North,16.1,-,N/A,Thunderstorm,Overcast,10,2012-12-04 23:04:00
5:14 PM,64.4,59.0,83,30.10,6.0,North,13.8,24.2,0.02,Rain-Thunderstorm,Light Thunderstorms and Rain,10,2012-12-04 23:14:00
5:28 PM,62.6,60.8,94,30.13,2.0,NW,5.8,-,0.22,Rain-Thunderstorm,Heavy Thunderstorms and Rain,320,2012-12-04 23:28:00
5:41 PM,62.6,60.8,94,30.13,3.0,NE,8.1,-,0.28,Rain-Thunderstorm,Heavy Thunderstorms and Rain,40,2012-12-04 23:41:00
5:50 PM,62.6,60.8,94,30.14,7.0,ENE,8.1,-,0.29,Rain-Thunderstorm,Thunderstorms and Rain,70,2012-12-04 23:50:00
5:53 PM,63.0,61.0,93,30.13,7.0,NE,8.1,-,0.29,Rain-Thunderstorm,Thunderstorms and Rain,50,2012-12-04 23:53:00
6:44 PM,62.6,60.8,94,30.15,10.0,NNE,6.9,-,0.02,Rain,Light Rain,20,2012-12-05 00:44:00
6:53 PM,62.1,60.1,93,30.16,10.0,NNE,3.5,-,0.02,,Overcast,30,2012-12-05 00:53:00
7:53 PM,61.0,59.0,93,30.18,10.0,North,4.6,-,N/A,,Overcast,10,2012-12-05 01:53:00
8:10 PM,60.8,59.0,94,30.19,10.0,NNE,6.9,-,N/A,,Overcast,30,2012-12-05 02:10:00
8:18 PM,60.8,59.0,94,30.19,10.0,NNE,6.9,-,N/A,,Overcast,20,2012-12-05 02:18:00
8:53 PM,60.1,57.9,93,30.18,10.0,North,6.9,-,N/A,,Overcast,360,2012-12-05 02:53:00
9:00 PM,60.8,57.2,88,30.19,10.0,North,8.1,-,N/A,,Overcast,10,2012-12-05 03:00:00
9:10 PM,60.8,57.2,88,30.20,10.0,NNE,6.9,-,N/A,,Overcast,20,2012-12-05 03:10:00
9:53 PM,60.1,57.0,90,30.21,10.0,NNE,9.2,-,N/A,,Overcast,30,2012-12-05 03:53:00
10:26 PM,60.8,57.2,88,30.21,10.0,NNE,6.9,-,N/A,,Overcast,20,2012-12-05 04:26:00
10:53 PM,60.1,57.0,90,30.21,10.0,North,9.2,-,N/A,,Overcast,10,2012-12-05 04:53:00
11:00 PM,60.8,55.4,82,30.21,10.0,NNE,10.4,-,N/A,,Overcast,20,2012-12-05 05:00:00
11:53 PM,59.0,55.9,90,30.20,9.0,NNE,8.1,-,N/A,,Overcast,30,2012-12-05 05:53:00